Location: Austin
(30.3000°N, 97.7500°W)
Time: 03:16:52
(UTC-05:00)

FALCON 9 R/B - Pass Details

Date: 01 October 2024
Orbit: 289 x 9605 km, 34.5° (Epoch: 07 October)

Event Time Altitude Azimuth Distance (km) Brightness Sun altitude
Rises 20:41:41 0° 247° (WSW) 3,481 6.4 -19.4°
Reaches altitude 10° 20:43:19 10° 247° (WSW) 2,913 5.8 -19.7°
Maximum altitude 20:50:31 87° 159° (SSE) 2,112 4.1 -21.3°
Enters shadow 21:11:07 20° 73° (ENE) 7,867 6.6 -25.7°
